Location: Unspecified
(0.0000°N, 0.0000°E)
Time: 07:54:20
(UTC+00:00)

LES 2 - Pass Details

Date: 09 October 2025
Orbit: 2783 x 14792 km, 32.1° (Epoch: 30 October)

Event Time Altitude Azimuth Distance (km) Brightness Sun altitude
Exits shadow 02:02:40 28° 200° (SSW) 5,242 ? -55.6°
Maximum altitude 02:05:16 29° 187° (S) 5,504 ? -55.0°
Drops below altitude 10° 02:33:21 10° 129° (SE) 11,155 ? -48.1°
Sets 02:54:44 0° 115° (ESE) 15,088 ? -42.8°
